{"data":{"norad_id":62034,"epoch":"2026-09-21T21:50:33.719136Z","epoch_age_seconds":63670,"freshness":"FRESH","line1":"1 62034U 24216C   26264.91011249  .00007071  00000+0  26610-3 0  9999","line2":"2 62034  42.9968 228.2959 0000767 326.0691  34.0111 15.27597380102728","mean_motion":15.2759738,"eccentricity":7.67e-5,"inclination_deg":42.9968,"raan_deg":228.2959,"arg_perigee_deg":326.0691,"mean_anomaly_deg":34.0111,"bstar":0.0002661,"rev_number":10272,"period_min":94.265676208478,"perigee_km":482.47080557866,"apogee_km":483.52330354263,"semimajor_km":6861.1340545606,"source":"CELESTRAK","updated_at":"2026-09-22T09:00:49.486637Z"}}